Location: Düngen
(52.0952°N, 10.0219°E)
Time: 19:44:20
(UTC+00:00)

CENTAUR R/B - Pass Details

Date: 11 March 2026
Orbit: 625 x 1555 km, 63.4° (Epoch: 20 April)

Event Time Altitude Azimuth Distance (km) Brightness Sun altitude
Rises 20:41:48 0° 282° (WNW) 3,613 6.4 -30.2°
Reaches altitude 10° 20:44:24 10° 292° (WNW) 2,802 5.7 -30.5°
Maximum altitude 20:50:33 35° 357° (N) 1,809 4.1 -31.2°
Enters shadow 20:56:33 15° 56° (NE) 2,994 4.9 -31.9°
